Tracking 29892 objects as of 21-Nov-2024
HD Live streaming from Space Station
objects crossing your sky now

TITAN 34B AGENA D DEB

Track TITAN 34B AGENA D DEB now!
10-day predictions


NORAD ID: 23811
Int'l Code: 1983-078C
Perigee: 462.8 km
Apogee: 13,548.2 km
Inclination: 63.4 °
Period: 256.6 minutes
Semi major axis: 13376 km
RCS: Unknown
Launch date: July 31, 1983
Source: United States (US)
Launch site: AIR FORCE WESTERN TEST RANGE (AFWTR)

Note: This is SATELLITE DEBRIS
Your satellite tracking list
Your tracking list is empty




NASA's NSSDC Master Catalog

Two Line Element Set (TLE):
1 23811U 83078C   24325.65601036  .00014454  00000-0  14525-1 0  9990
2 23811  63.4314  84.3041 4891180 247.0236  55.2657  5.61161042105544
Source of the keplerian elements: AFSPC